Freeport, IL

1:04 PM CST on February 21, 2018 (GMT -0600)
Albertus

Weather History for KFEP - January, 2013

Change the Weather History Date:

Wednesday, January 30, 2013

  Actual Average Record
Temperature  
Mean Temperature 26 °F -  
Max Temperature 36 °F 27 °F 45 °F (1988)
Min Temperature 16 °F 12 °F -11 °F (1978)
Degree Days  
Heating Degree Days 38    
Moisture  
Dew Point 27 °F    
Average Humidity 89    
Maximum Humidity 93    
Minimum Humidity 76    
Precipitation  
Precipitation 0.36 in - - ()
Sea Level Pressure  
Sea Level Pressure 29.44 in    
Wind  
Wind Speed 12 mph (NW)    
Max Wind Speed 23 mph    
Max Gust Speed 31 mph    
Visibility 6 miles    
Events Rain , Snow    
Averages and records for this station are not official NWS values.
T = Trace of Precipitation, MM = Missing Value Source: NWS Daily Summary

Daily Weather History Graph

Daily Weather History Graph

Search for Another Location

Airport or City:

Trip Planner

Search our weather history database for the weather conditions in past years. The results will help you decide how hot, cold, wet, or windy it might be!

Date:

Astronomy

Jan. 30, 2013 Rise Set
Actual Time 7:13 AM CST 5:10 PM CST
Civil Twilight 6:43 AM CST 5:40 PM CST
Nautical Twilight 6:09 AM CST 6:13 PM CST
Astronomical Twilight 5:36 AM CST 6:46 PM CST
Moon 9:14 PM CST (1/30) 8:36 AM CST (1/30)
Length of Visible Light 10h 56m
Length of Day
9h 57m
Waning Gibbous, 87% of the Moon is Illuminated
Jan 30
Waning Gibbous
Feb 3
Last Quarter
Feb 10
New
Feb 17
First Quarter
Feb 25
Full

Hourly Weather History & Observations

Time (CST) Temp. Windchill Dew Point Humidity Pressure Visibility Wind Dir Wind Speed Gust Speed Precip Events Conditions
12:15 AM 36.1 °F 29.3 °F 34.2 °F 93% 29.46 in 4.0 mi NNW 9.2 mph - 0.02 in Rain Light Rain
12:35 AM 36.1 °F 30.6 °F 34.3 °F 93% 29.47 in 3.0 mi NW 6.9 mph - 0.04 in Rain Rain
12:55 AM 36.1 °F 28.7 °F 34.3 °F 93% 29.48 in 3.0 mi NW 10.4 mph - 0.06 in Rain Light Rain
1:15 AM 36.1 °F 31.4 °F 34.3 °F 93% 29.47 in 3.0 mi NNW 5.8 mph - 0.02 in Rain Light Rain
1:35 AM 35.6 °F 28.0 °F 33.8 °F 93% 29.43 in 4.0 mi North 10.4 mph - N/A   Drizzle
1:55 AM 36.1 °F 29.3 °F 34.3 °F 93% 29.44 in 7.0 mi North 9.2 mph - 0.04 in   Light Drizzle
2:15 AM 36.1 °F 29.3 °F 34.3 °F 93% 29.43 in 10.0 mi North 9.2 mph - N/A   Overcast
2:35 AM 36.1 °F 31.4 °F 34.3 °F 93% 29.45 in 10.0 mi North 5.8 mph - N/A   Drizzle
2:55 AM 36.1 °F 32.3 °F 34.3 °F 93% 29.44 in 7.0 mi North 4.6 mph - N/A   Drizzle
3:15 AM 36.1 °F 31.4 °F 34.3 °F 93% 29.46 in 4.0 mi NNW 5.8 mph - 0.01 in   Drizzle
3:35 AM 35.6 °F 29.2 °F 33.8 °F 93% 29.45 in 3.0 mi NW 8.1 mph - N/A Rain Rain
3:55 AM 36.1 °F 33.5 °F 34.3 °F 93% 29.47 in 5.0 mi NNW 3.5 mph - 0.04 in Rain Rain
4:15 AM 36.1 °F 29.9 °F 34.3 °F 93% 29.41 in 5.0 mi North 8.1 mph - 0.01 in   Drizzle
4:35 AM 35.8 °F 26.9 °F 34.0 °F 93% 29.37 in 10.0 mi North 13.8 mph - 0.01 in   Light Drizzle
4:55 AM 34.9 °F 25.7 °F 33.1 °F 93% 29.38 in 10.0 mi North 13.8 mph 19.6 mph 0.01 in   Overcast
5:15 AM 34.9 °F 26.2 °F 32.9 °F 92% 29.39 in 10.0 mi North 12.7 mph 16.1 mph N/A   Overcast
5:35 AM 34.3 °F 25.0 °F 32.2 °F 92% 29.37 in 10.0 mi North 13.8 mph 19.6 mph N/A   Overcast
5:55 AM 33.8 °F 24.3 °F 32.0 °F 93% 29.35 in 10.0 mi NNE 13.8 mph 19.6 mph N/A   Overcast
6:15 AM 33.8 °F 24.3 °F 32.0 °F 93% 29.36 in 10.0 mi NNE 13.8 mph 20.7 mph N/A   Overcast
6:35 AM 33.8 °F 24.8 °F 32.0 °F 93% 29.36 in 7.0 mi North 12.7 mph 18.4 mph N/A   Overcast
6:55 AM 33.8 °F 24.8 °F 32.0 °F 93% 29.34 in 5.0 mi NNE 12.7 mph - N/A   Overcast
7:15 AM 33.8 °F 25.8 °F 32.0 °F 93% 29.33 in 3.0 mi NNE 10.4 mph - 0.02 in Rain Rain
7:35 AM 33.8 °F 26.4 °F 32.0 °F 93% 29.34 in 4.0 mi NNE 9.2 mph - 0.05 in Rain Light Rain
7:55 AM 33.8 °F 25.8 °F 32.0 °F 93% 29.32 in 1.8 mi NNE 10.4 mph - 0.09 in Rain Rain
8:15 AM 33.8 °F 23.9 °F 32.0 °F 93% 29.31 in 3.0 mi NNE 15.0 mph - 0.02 in Rain Light Rain
8:35 AM 33.8 °F 25.3 °F 32.0 °F 93% 29.31 in 2.5 mi NNE 11.5 mph - 0.04 in Rain Light Rain
8:55 AM 33.8 °F 28.6 °F 32.0 °F 93% 29.33 in 1.8 mi NNW 5.8 mph - 0.04 in Snow Light Snow
9:15 AM 33.8 °F 29.6 °F 32.0 °F 93% 29.33 in 0.8 mi NW 4.6 mph - N/A Snow Light Snow
9:35 AM 33.8 °F 26.4 °F 32.0 °F 93% 29.34 in 0.5 mi WNW 9.2 mph - N/A Snow Snow
9:55 AM 33.8 °F 26.4 °F 32.0 °F 93% 29.34 in 0.5 mi NW 9.2 mph - N/A Snow Snow
10:15 AM 33.8 °F 25.8 °F 32.0 °F 93% 29.36 in 0.5 mi NW 10.4 mph - N/A Snow Snow
10:35 AM 33.8 °F 24.3 °F 32.0 °F 93% 29.35 in 0.5 mi NNW 13.8 mph 19.6 mph N/A Snow Snow
10:55 AM 33.8 °F 23.9 °F 32.0 °F 93% 29.31 in 0.8 mi North 15.0 mph 21.9 mph 0.01 in Snow Light Snow
11:15 AM 33.8 °F 23.2 °F 32.0 °F 93% 29.31 in 0.8 mi NNW 17.3 mph 21.9 mph N/A Snow Light Snow
11:35 AM 33.8 °F 23.5 °F 32.0 °F 93% 29.32 in 1.2 mi NW 16.1 mph 23.0 mph 0.03 in Snow Light Snow
11:55 AM 33.1 °F 22.2 °F 31.3 °F 93% 29.31 in 4.0 mi NW 17.3 mph 23.0 mph 0.05 in Snow Light Snow
12:15 PM 31.5 °F 19.1 °F 28.8 °F 90% 29.32 in 10.0 mi NW 20.7 mph 26.5 mph 0.01 in   Overcast
12:35 PM 31.5 °F 19.8 °F 28.4 °F 88% 29.32 in 10.0 mi NW 18.4 mph 24.2 mph 0.02 in   Overcast
12:55 PM 32.0 °F 21.6 °F 28.4 °F 87% 29.33 in 10.0 mi NW 15.0 mph 28.8 mph N/A   Overcast
1:15 PM 31.5 °F 20.1 °F 28.2 °F 88% 29.33 in 10.0 mi NW 17.3 mph 25.3 mph N/A   Overcast
1:35 PM 31.5 °F 20.1 °F 28.2 °F 88% 29.34 in 10.0 mi NW 17.3 mph - N/A   Overcast
1:55 PM 31.5 °F 19.4 °F 28.2 °F 88% 29.34 in 7.0 mi NW 19.6 mph 23.0 mph N/A Snow Light Snow
2:15 PM 31.5 °F 20.9 °F 28.2 °F 88% 29.35 in 7.0 mi WNW 15.0 mph - N/A Snow Light Snow
2:35 PM 32.0 °F 20.1 °F 28.4 °F 87% 29.37 in 10.0 mi WNW 19.6 mph 24.2 mph N/A Snow Light Snow
2:55 PM 31.1 °F 20.9 °F 27.7 °F 87% 29.38 in 4.0 mi West 13.8 mph 25.3 mph N/A Snow Light Snow
3:15 PM 30.0 °F 19.5 °F 26.6 °F 87% 29.39 in 2.0 mi WNW 13.8 mph 20.7 mph N/A Snow Light Snow
3:35 PM 28.8 °F 16.6 °F 25.7 °F 88% 29.41 in 1.5 mi WNW 17.3 mph 25.3 mph N/A Snow Light Snow
3:55 PM 28.4 °F 15.4 °F 24.8 °F 86% 29.42 in 2.0 mi WNW 19.6 mph 26.5 mph N/A Snow Light Snow
4:15 PM 26.4 °F 12.8 °F 23.0 °F 87% 29.43 in 1.5 mi West 19.6 mph 31.1 mph N/A Snow Light Snow
4:35 PM 26.2 °F 13.0 °F 22.8 °F 87% 29.45 in 2.0 mi West 18.4 mph 25.3 mph N/A Snow Light Snow
4:55 PM 25.3 °F 12.6 °F 21.7 °F 86% 29.47 in 7.0 mi West 16.1 mph 25.3 mph N/A Snow Light Snow
5:15 PM 24.4 °F 9.2 °F 21.0 °F 87% 29.48 in 4.0 mi West 23.0 mph 29.9 mph N/A Snow Light Snow
5:35 PM 23.9 °F 10.3 °F 20.3 °F 86% 29.49 in 4.0 mi West 17.3 mph 28.8 mph N/A   Overcast
5:55 PM 23.7 °F 10.1 °F 20.1 °F 86% 29.51 in 3.0 mi WNW 17.3 mph 26.5 mph N/A   Overcast
6:15 PM 23.7 °F 8.9 °F 19.9 °F 85% 29.51 in 4.0 mi West 20.7 mph 28.8 mph N/A Snow Light Snow
6:35 PM 23.0 °F 9.2 °F 19.4 °F 86% 29.53 in 7.0 mi West 17.3 mph 24.2 mph N/A Snow Light Snow
6:55 PM 23.7 °F 10.1 °F 19.4 °F 84% 29.54 in 10.0 mi West 17.3 mph 29.9 mph N/A   Overcast
7:15 PM 22.6 °F 7.1 °F 18.5 °F 84% 29.55 in 10.0 mi West 21.9 mph 27.6 mph N/A   Overcast
7:35 PM 21.2 °F 6.4 °F 16.9 °F 83% 29.56 in 10.0 mi West 18.4 mph 24.2 mph N/A   Overcast
7:55 PM 21.2 °F 6.0 °F 16.7 °F 83% 29.56 in 10.0 mi West 19.6 mph 25.3 mph N/A   Overcast
8:15 PM 21.2 °F 6.8 °F 16.5 °F 82% 29.58 in 10.0 mi West 17.3 mph 26.5 mph N/A   Overcast
8:35 PM 21.2 °F 6.0 °F 16.3 °F 82% 29.59 in 10.0 mi West 19.6 mph 24.2 mph N/A   Overcast
8:55 PM 21.2 °F 6.0 °F 16.3 °F 82% 29.60 in 10.0 mi West 19.6 mph 31.1 mph N/A   Overcast
9:15 PM 19.9 °F 3.9 °F 14.9 °F 81% 29.61 in 10.0 mi West 20.7 mph 25.3 mph N/A   Overcast
9:35 PM 21.2 °F 4.9 °F 15.8 °F 80% 29.61 in 10.0 mi West 23.0 mph 31.1 mph N/A   Overcast
9:55 PM 19.9 °F 3.9 °F 14.5 °F 80% 29.62 in 10.0 mi West 20.7 mph 26.5 mph N/A   Overcast
10:15 PM 18.9 °F 2.1 °F 13.8 °F 81% 29.63 in 7.0 mi West 21.9 mph 25.3 mph N/A Snow Light Snow
10:35 PM 18.5 °F 3.3 °F 12.4 °F 77% 29.64 in 10.0 mi West 17.3 mph 28.8 mph N/A   Overcast
10:55 PM 18.5 °F 3.8 °F 12.4 °F 77% 29.65 in 10.0 mi West 16.1 mph 26.5 mph N/A   Overcast
11:15 PM 18.5 °F 3.3 °F 13.1 °F 79% 29.66 in 10.0 mi West 17.3 mph 27.6 mph N/A   Overcast
11:35 PM 17.4 °F 0.6 °F 11.1 °F 76% 29.66 in 10.0 mi West 20.7 mph 27.6 mph N/A   Overcast
11:55 PM 16.5 °F 1.8 °F 10.0 °F 76% 29.68 in 10.0 mi West 15.0 mph 23.0 mph N/A   Overcast